Junction, TX

10:55 AM CDT on July 20, 2017 (GMT -0500)
Kimble County

Weather History for KJCT - December, 2012

Change the Weather History Date:

Thursday, December 6, 2012

  Actual Average Record
Temperature  
Mean Temperature 56 °F -  
Max Temperature 79 °F 60 °F 79 °F (2012)
Min Temperature 34 °F 34 °F 18 °F (1999)
Degree Days  
Heating Degree Days 8    
Growing Degree Days 6 (Base 50)    
Moisture  
Dew Point 34 °F    
Average Humidity 46    
Maximum Humidity 69    
Minimum Humidity 18    
Precipitation  
Precipitation 0.00 in - - ()
Sea Level Pressure  
Sea Level Pressure 29.86 in    
Wind  
Wind Speed 5 mph (WSW)    
Max Wind Speed 14 mph    
Max Gust Speed 22 mph    
Visibility 8 miles    
Events      
Averages and records for this station are not official NWS values.
T = Trace of Precipitation, MM = Missing Value Source: NWS Daily Summary

Daily Weather History Graph

Daily Weather History Graph

Search for Another Location

Airport or City:

Trip Planner

Search our weather history database for the weather conditions in past years. The results will help you decide how hot, cold, wet, or windy it might be!

Date:

Astronomy

Dec. 06, 2012 Rise Set
Actual Time 7:22 AM CST 5:37 PM CST
Civil Twilight 6:56 AM CST 6:04 PM CST
Nautical Twilight 6:26 AM CST 6:34 PM CST
Astronomical Twilight 5:57 AM CST 7:03 PM CST
Moon 12:08 AM CST (12/6) 12:39 PM CST (12/6)
Length of Visible Light 11h 07m
Length of Day
10h 15m
Waning Gibbous, 49% of the Moon is Illuminated
Dec 6
Waning Gibbous
Dec 13
New
Dec 19
First Quarter
Dec 28
Full
Jan 4
Last Quarter

Hourly Weather History & Observations

Time (CST) Temp. Windchill Dew Point Humidity Pressure Visibility Wind Dir Wind Speed Gust Speed Precip Events Conditions
12:51 AM 37.9 °F 34.4 °F 21.9 °F 53% 29.98 in 10.0 mi WNW 4.6 mph - N/A   Clear
1:51 AM 37.9 °F 34.4 °F 21.9 °F 53% 29.96 in 10.0 mi West 4.6 mph - N/A   Clear
2:51 AM 36.0 °F 32.1 °F 21.9 °F 57% 29.94 in 10.0 mi West 4.6 mph - N/A   Clear
3:51 AM 36.0 °F 32.1 °F 21.9 °F 57% 29.92 in 9.0 mi WNW 4.6 mph - N/A   Clear
4:51 AM 35.1 °F 31.0 °F 21.9 °F 59% 29.91 in 10.0 mi West 4.6 mph - N/A   Clear
5:51 AM 35.1 °F 31.0 °F 23.0 °F 61% 29.92 in 10.0 mi WNW 4.6 mph - N/A   Clear
6:51 AM 35.1 °F 32.2 °F 23.0 °F 61% 29.94 in 10.0 mi West 3.5 mph - N/A   Clear
7:51 AM 35.1 °F 31.0 °F 23.0 °F 61% 29.94 in 7.0 mi West 4.6 mph - N/A   Clear
8:51 AM 43.0 °F - 27.0 °F 53% 29.93 in 6.0 mi Calm Calm - N/A   Haze
9:51 AM 59.0 °F - 35.1 °F 41% 29.92 in 9.0 mi Calm Calm - N/A   Clear
10:51 AM 70.0 °F - 37.0 °F 30% 29.89 in 8.0 mi SW 13.8 mph 20.7 mph N/A   Clear
11:51 AM 73.0 °F - 37.9 °F 28% 29.85 in 6.0 mi SW 13.8 mph 19.6 mph N/A   Haze
12:51 PM 75.0 °F - 39.9 °F 28% 29.81 in 6.0 mi SW 10.4 mph 21.9 mph N/A   Haze
1:51 PM 77.0 °F - 42.1 °F 29% 29.78 in 7.0 mi South 13.8 mph - N/A   Clear
2:51 PM 79.0 °F - 42.1 °F 27% 29.76 in 5.0 mi SW 12.7 mph 18.4 mph N/A   Haze
3:51 PM 79.0 °F - 42.1 °F 27% 29.75 in 5.0 mi SW 11.5 mph - N/A   Haze
4:51 PM 78.1 °F - 42.1 °F 28% 29.74 in 5.0 mi SW 11.5 mph - N/A   Haze
5:51 PM 73.0 °F - 44.1 °F 35% 29.76 in 7.0 mi SSW 5.8 mph - N/A   Clear
6:51 PM 68.0 °F - 45.0 °F 43% 29.78 in 9.0 mi Calm Calm - N/A   Clear
7:51 PM 63.0 °F - 44.1 °F 50% 29.81 in 10.0 mi Calm Calm - N/A   Clear
8:51 PM 57.0 °F - 43.0 °F 59% 29.82 in 10.0 mi Calm Calm - N/A   Clear
9:51 PM 55.0 °F - 43.0 °F 64% 29.81 in 9.0 mi Calm Calm - N/A   Clear
10:51 PM 55.9 °F - 45.0 °F 67% 29.80 in 9.0 mi Calm Calm - N/A   Clear
11:51 PM 53.1 °F - 43.0 °F 69% 29.80 in 9.0 mi Calm Calm - N/A   Clear